Location: Lecco
(45.8566°N, 9.3977°E)
Time: 08:37:33
(UTC+02:00)

Altair - Pass Details

Date: 18 August 2020
Orbit: 1501 x 1682 km, 47.2° (Epoch: 25 September)

Event Time Altitude Azimuth Distance (km) Brightness Sun altitude
Rises 03:43:48 0° 257° (WSW) 4,830 - -23.5°
Reaches altitude 10° 03:46:57 10° 258° (WSW) 3,821 - -23.2°
Exits shadow 03:50:02 24° 259° (W) 2,871 8.5 -22.8°
Maximum altitude 03:56:41 87° 349° (N) 1,566 7.5 -22.1°
Drops below altitude 10° 04:06:04 10° 79° (E) 3,689 10.2 -21.0°
Sets 04:09:03 0° 80° (E) 4,657 10.9 -20.7°
